STARLINK-32784, 62607

Orbit data source: Space-Track

STARLINK-32784, 62607 is a payload satellite owned by SpaceX/Seattle (US) in LEO that was launched on Mon, 13 Jan 2025 UTC via an FALCON 9 launch vehicle from the Air Force Eastern Test Range (AFETR). Payload-class satellites include a variety of spacecraft equipped with specific instruments for various scientific and technological missions. These include communications satellites like Starlink; space stations such as the ISS; scientific satellites like the Hubble; Earth observation satellites from companies like Planet Labs, Umbra, and HawkEye 360; GPS; miniature CubeSats for education and research; and military/defense satellites.

Loading next visibility...
Identifier
62607, 2025-008W
Orbit
LEO
Country
Flag of USUS
Related business
Manufacturer
SpaceX/Seattle
Mission
Partially operational Commercial Communications
Bus & Motor
STARLINK V2M, Unknown motor
Mass
730 kg wet, ~700 kg dry
Launch date (UTC)
2025-01-13 (1 year ago)
Launch vehicle
FALCON 9
Launch site
Air Force Eastern Test Range (AFETR)
Object type
Payload
Rocket body
Debris
Shape & HBR
Box + 2 Pan, 17.7 m
Radar Cross Section
33.884 m², Large (>1 m²)

Expand to show TLE details & history
Last TLE update: 7 hours ago

TLE from 7 hours ago
0 STARLINK-32784
1 62607U 25008W   26125.93516158  .00078008  00000-0  17965-2 0  9993
2 62607  42.9956 309.0365 0017478 292.4628  67.4377 15.41520179 74442
Epoch: 2026-05-05T22:26Z
TLE epoch observation values (Epoch: 2026-05-05T22:26:37.960Z)
Latitude
-0.00007°
Longitude
108.57538°
Altitude
436.841 km
Speed
7.654 km/s
True Right ascension
20h 36m 08s
True Declination
0° 00' 00"
Sunlit
Object was in daylight at epoch
Visualization orbit readout
Latitude
Unknown
Longitude
Unknown
Altitude
Unknown
Speed
Unknown
Apparent Right ascension
Unknown
Apparent Declination
Unknown
Sunlit
N/A
Visualization observer readout
Local Sidereal Time
13:32:02
Azimuth
Unknown
Elevation
Unknown
Doppler factor
Unknown
Orbital elements
Apogee altitude
455.503 km
Perigee altitude
431.657 km
Semi-major axis
6,821.717 km
Eccentricity
0.00175
Inclination
42.9956°
RAAN
309.0365°
Arg. of periapsis
292.4628°
True anomaly
67.62281°
Mean anomaly
67.4377°
Eccentric anomaly
67.53024°
Mean motion
3.85215 °/min
Orbital period
93.45 mins
BSTAR
0.0017965
Loading maneuver chart data...
Computing Atmospheric mass density...
Loading historical data...
Loading historical data...
Loading historical data...
Loading historical data...
Loading historical data...
Loading historical data...
Loading historical data...

Documentation

Showing up to 5 results
|